Probability
9 8 9 8 7 6 5 3 2 1 0 1 2 2 2 2 2 2 2 1 0 0 0 0 1 2 2 1 0 0 0 0 0 0 0 0 0 0
7 7 8 9 7 5 4 3 2 1 0 1 2 3 3 3 3 3 3 2 1 0 0 0 0 1 1 0 0 0 0 0 0 0 0 0 0 0
6 6 6 7 6 4 3 2 1 1 0 1 2 3 4 3 3 2 3 3 2 1 0 0 0 0 0 0 0 0 0 0 0 0 0 0 0 0
4 4 3 4 4 3 2 1 1 0 0 0 1 3 3 3 2 1 1 2 3 1 0 0 0 0 0 0 0 0 0 0 0 0 0 0 0 0
2 1 1 2 3 2 1 1 1 1 1 1 1 3 3 3 2 1 0 1 1 0 0 0 0 0 0 0 0 0 0 0 0 0 0 0 0 0
1 1 1 2 2 1 0 0 1 2 2 2 2 3 3 3 3 2 1 1 1 0 0 0 0 0 0 0 0 0 0 0 0 0 0 0 0 0
2 2 3 2 1 0 0 0 0 1 3 3 2 3 3 3 3 3 3 2 2 1 0 0 0 0 0 0 0 0 0 0 0 0 0 0 0 0
3 3 3 2 1 0 0 0 0 1 2 3 3 3 3 3 3 3 3 3 3 1 0 0 0 0 0 0 0 0 0 0 0 0 0 0 0 0
3 3 2 1 1 1 1 1 1 1 1 2 3 3 3 3 3 3 3 3 3 2 1 0 0 0 0 0 0 0 0 0 0 0 0 0 0 0
3 3 3 2 2 2 2 2 2 2 1 1 2 3 3 3 3 3 3 3 3 3 2 1 0 0 0 0 0 0 0 0 0 0 0 0 0 0
3 3 3 3 3 3 3 3 3 3 1 0 1 2 1 1 2 3 3 3 3 3 3 2 1 0 0 0 0 0 0 0 0 0 0 0 0 0
3 3 3 2 1 1 2 2 2 2 1 0 0 0 0 1 1 2 3 3 3 3 3 3 2 1 0 0 0 0 0 0 0 0 0 0 0 0
2 2 2 1 0 0 1 1 1 1 1 0 0 0 1 2 2 3 3 3 3 3 3 3 3 2 1 0 0 0 0 0 0 0 0 0 0 0
1 1 1 0 0 0 0 0 0 0 0 0 0 0 1 3 3 3 3 3 3 3 3 3 3 2 1 0 0 0 0 0 0 0 0 0 0 0
0 0 0 0 0 0 0 0 0 0 0 0 1 1 2 3 3 3 3 3 3 3 3 3 3 2 1 0 0 0 0 0 0 0 0 0 0 0
0 0 0 0 0 0 0 0 0 0 0 0 1 2 2 2 2 3 3 3 2 2 3 3 3 2 1 0 0 0 0 0 0 0 0 0 0 0
0 0 0 0 0 0 0 0 0 0 0 0 1 1 1 1 1 1 2 1 1 1 1 2 2 1 0 0 0 0 0 0 0 0 0 0 0 0
0 0 0 0 0 0 1 1 1 0 0 0 0 0 0 0 0 0 0 0 0 0 0 1 1 0 0 0 0 0 0 0 0 0 0 0 0 0
0 0 0 0 1 1 2 2 2 1 1 0 0 0 0 0 0 0 0 0 0 0 0 0 0 0 0 0 0 0 0 0 0 0 0 0 0 0
0 0 0 0 1 2 3 3 3 3 2 1 1 0 0 0 0 0 0 0 0 0 0 0 0 0 0 0 0 0 0 0 0 0 0 0 0 0
2 2 2 2 3 4 4 4 4 4 4 3 3 1 1 1 0 0 0 0 0 0 0 0 0 0 0 0 0 0 0 0 0 0 0 0 0 0
4 4 5 5 5 5 6 6 6 6 6 5 5 4 3 2 1 1 1 1 0 0 0 0 0 0 0 0 0 0 0 0 0 0 0 0 0 0
4 5 6 6 6 6 6 6 6 6 6 6 5 5 5 3 2 2 2 2 1 0 0 0 0 0 0 0 0 0 0 0 0 0 0 0 0 0
Wind_Speed
2 2 1 1 1 1 2 3 3 2 1 1 1 2 3 3 4 4 5 9 10 9 9 9 9 9 9 8 8 7 6 6 6 5 5 5 5 4
2 2 2 1 1 1 1 1 1 3 2 1 1 2 3 4 5 4 6 10 9 9 9 10 10 9 9 9 9 8 8 7 6 6 6 5 5 6
3 3 2 2 1 1 0 1 1 2 3 2 2 2 3 3 3 3 5 4 5 9 9 10 9 9 9 8 8 8 7 7 7 6 6 6 5 5
4 3 3 2 2 1 1 2 2 2 4 5 3 2 2 2 2 3 4 5 4 8 9 9 9 8 8 8 7 7 6 6 6 6 5 5 5 5
4 4 4 4 3 3 3 2 2 3 4 5 4 2 1 2 2 2 4 3 5 7 8 7 7 7 7 7 6 6 5 5 5 5 6 6 5 5
5 5 5 5 4 3 3 3 3 3 4 4 4 3 2 1 2 2 2 2 2 4 5 6 6 7 6 6 6 5 4 4 4 4 4 4 5 5
5 5 6 8 9 6 4 3 3 3 2 3 3 3 1 1 0 1 2 2 2 2 3 4 4 3 4 4 5 5 4 3 3 2 2 2 2 3
4 4 5 6 7 9 9 8 5 3 3 3 3 2 2 1 0 1 1 1 1 1 2 2 4 4 4 3 5 6 5 4 3 2 1 0 0 1
3 2 3 5 4 4 6 7 7 7 5 3 3 2 2 1 1 1 1 1 1 1 1 2 2 3 3 5 9 8 7 5 4 4 3 2 2 2
3 4 4 3 4 2 3 4 4 4 3 2 3 2 2 1 0 0 1 2 1 1 1 0 1 1 3 4 9 10 8 7 6 5 4 4 4 4
3 3 3 3 5 4 2 3 3 2 3 5 4 3 3 3 2 1 1 0 1 1 0 0 0 0 1 2 5 10 9 8 7 6 6 5 4 4
3 4 5 4 4 4 1 1 1 0 1 2 2 2 2 2 2 0 0 1 1 0 0 0 0 0 0 1 2 4 5 6 7 7 7 6 5 3
3 3 3 3 3 3 2 1 1 1 2 2 3 2 2 2 2 2 1 0 0 1 0 1 1 0 1 1 1 2 3 3 3 4 6 7 6 4
2 3 3 3 1 1 1 2 3 3 2 2 2 2 2 2 2 3 3 2 2 2 1 1 1 1 1 1 1 1 2 2 3 3 3 5 6 7
2 4 4 3 2 2 3 3 3 2 2 1 1 1 1 2 2 2 2 2 2 2 2 2 1 1 1 1 1 1 1 2 2 2 2 3 3 3
2 3 4 4 3 3 2 2 2 1 2 2 1 1 1 1 2 2 2 2 2 2 3 3 3 3 2 2 1 1 1 1 1 2 2 2 3 3
2 2 2 2 3 2 2 2 2 2 2 2 2 1 1 1 1 1 1 1 2 2 1 1 1 1 2 1 1 2 2 2 2 2 2 2 2 2
2 2 3 3 3 2 2 2 2 2 2 2 2 2 2 1 1 1 1 1 1 1 1 1 1 1 1 2 2 3 2 2 2 2 2 2 2 2
2 3 2 2 2 2 2 2 2 2 1 2 2 2 2 2 1 1 1 1 1 1 1 1 1 1 2 3 3 3 3 3 2 2 2 2 3 2
3 3 2 1 1 2 2 1 1 1 1 2 1 1 1 1 1 1 1 1 1 1 1 1 1 1 3 3 3 3 5 3 2 2 2 2 2 1
3 3 3 2 2 1 1 1 2 1 1 1 1 1 1 1 1 1 1 1 2 2 2 2 2 4 3 2 2 3 3 5 4 3 2 2 2 2
3 3 3 2 2 2 2 2 2 1 1 2 1 2 2 1 2 2 2 2 2 2 2 2 2 2 2 3 4 4 3 2 3 5 5 4 3 3
3 3 3 2 2 2 2 2 2 1 1 2 2 2 2 1 2 2 2 2 2 2 2 2 2 2 3 3 3 3 4 3 2 2 3 6 8 9
Wind_Direction
17 26 10 36 106 136 138 160 165 169 149 148 112 89 97 100 114 102 96 87 85 83 82 78 78 81 82 80 79 76 73 69 67 66 62 62 59 53
40 45 35 29 45 89 117 165 159 151 143 142 124 123 112 118 124 118 112 107 96 95 91 87 85 85 83 82 80 78 74 70 72 73 70 66 62 56
32 50 43 45 46 59 65 97 106 121 130 121 98 107 96 108 126 126 126 117 107 105 103 100 95 91 89 86 82 79 77 73 70 68 65 62 61 55
37 40 37 44 52 52 65 81 95 111 127 127 121 119 119 129 142 140 133 133 127 123 119 113 108 104 97 92 86 81 77 73 67 62 59 57 61 60
41 41 38 40 39 41 57 65 88 106 117 129 129 123 124 134 130 125 119 129 139 139 135 131 127 121 115 107 98 89 82 76 70 64 60 55 53 53
53 53 49 45 37 41 60 56 78 96 110 119 122 124 108 131 129 142 134 149 138 144 143 146 147 138 130 123 118 111 102 91 81 73 65 54 45 42
70 72 73 70 60 52 67 59 70 83 107 116 118 111 96 110 161 195 144 153 136 135 154 162 160 156 155 153 147 140 130 120 109 95 83 69 50 38
82 90 102 84 78 72 70 68 64 79 84 99 105 118 118 127 205 172 133 144 162 178 172 177 164 168 170 166 166 162 161 162 161 158 152 160 294 320
80 74 83 82 75 83 83 78 67 64 72 90 102 114 130 139 201 207 177 156 154 195 184 179 167 161 164 163 170 176 182 187 191 196 208 225 242 266
80 74 79 64 41 45 98 95 88 63 66 83 86 82 87 72 299 205 236 162 148 87 72 174 177 169 150 154 179 185 193 199 205 210 223 235 245 257
85 69 76 69 33 36 102 110 107 116 95 92 99 107 99 78 53 24 359 23 161 131 82 250 228 218 153 155 179 192 201 208 215 220 226 236 248 256
116 99 73 68 50 34 79 109 125 150 129 139 140 170 172 165 153 153 321 317 330 59 122 226 242 219 244 181 174 184 206 220 223 228 232 235 241 242
135 124 106 96 69 37 21 19 335 293 251 200 173 170 170 172 176 184 184 192 308 297 142 162 262 270 220 246 202 187 193 200 208 228 234 240 239 225
105 110 123 140 136 334 333 338 331 317 271 231 184 178 183 188 189 184 188 201 203 201 216 146 268 273 274 278 274 224 211 204 204 213 212 216 231 235
77 111 142 176 223 244 246 279 300 292 281 274 243 208 185 190 189 185 198 208 220 223 210 200 216 272 268 254 256 242 243 231 210 223 214 199 206 214
125 148 186 212 242 271 257 241 235 268 292 283 270 257 219 181 191 190 198 197 208 234 228 210 215 226 250 266 271 270 256 249 245 242 239 234 217 213
178 197 212 208 216 224 226 224 218 232 263 281 286 272 250 223 209 198 203 219 226 236 236 235 241 233 227 237 270 279 277 270 257 252 249 256 247 217
188 214 219 228 233 227 217 217 224 232 245 246 256 268 269 261 252 228 207 227 258 255 232 205 235 266 280 279 247 257 265 270 275 267 253 256 261 238
216 246 247 238 250 248 237 230 224 222 235 252 247 252 269 271 258 248 244 252 266 261 246 219 221 245 273 282 280 246 251 264 269 274 264 257 259 242
237 256 263 249 257 279 276 266 250 224 220 250 254 266 274 281 293 284 258 275 289 286 274 259 241 246 259 267 273 269 244 243 240 253 268 274 273 250
227 245 253 242 240 251 270 272 260 239 231 247 245 268 273 272 288 293 284 258 266 267 269 262 249 238 244 251 268 265 250 229 228 227 242 262 280 281
228 234 241 236 226 234 243 251 255 245 227 242 241 237 250 262 268 279 289 285 274 278 278 265 249 254 260 264 272 273 261 235 238 248 247 234 230 247
226 233 235 224 223 231 239 246 256 261 247 243 241 242 245 243 260 263 260 272 291 295 291 292 298 285 273 265 272 281 287 277 240 221 255 251 240 241